Sand Point, AK

11:55 AM AKST on December 17, 2017 (GMT -0900)
Sand Point

Weather History for PASD - November, 2012

Change the Weather History Date:

Saturday, November 3, 2012

  Actual Average Record
Temperature  
Mean Temperature 36 °F -  
Max Temperature 37 °F 41 °F 50 °F (1984)
Min Temperature 35 °F 35 °F 22 °F (1983)
Degree Days  
Heating Degree Days 29    
Moisture  
Dew Point 29 °F    
Average Humidity 76    
Maximum Humidity 81    
Minimum Humidity 65    
Precipitation  
Precipitation 0.00 in - - ()
Sea Level Pressure  
Sea Level Pressure 29.32 in    
Wind  
Wind Speed 21 mph (NNW)    
Max Wind Speed 28 mph    
Max Gust Speed 34 mph    
Visibility 10 miles    
Events      
Averages and records for this station are not official NWS values.
T = Trace of Precipitation, MM = Missing Value Source: NWS Daily Summary

Daily Weather History Graph

Daily Weather History Graph

Search for Another Location

Airport or City:

Trip Planner

Search our weather history database for the weather conditions in past years. The results will help you decide how hot, cold, wet, or windy it might be!

Date:

Astronomy

Nov. 03, 2012 Rise Set
Actual Time 9:52 AM AKDT 6:57 PM AKDT
Civil Twilight 9:13 AM AKDT 7:37 PM AKDT
Nautical Twilight 8:29 AM AKDT 8:20 PM AKDT
Astronomical Twilight 7:47 AM AKDT 9:03 PM AKDT
Moon 10:34 PM AKDT (11/3) 2:22 PM AKDT (11/3)
Length of Visible Light 10h 24m
Length of Day
9h 05m
Waning Gibbous, 79% of the Moon is Illuminated
Nov 3
Waning Gibbous
Nov 6
Last Quarter
Nov 13
New
Nov 20
First Quarter
Nov 28
Full

Hourly Weather History & Observations

Time (AKDT) Temp. Windchill Dew Point Humidity Pressure Visibility Wind Dir Wind Speed Gust Speed Precip Events Conditions
12:16 AM 35.6 °F 23.2 °F 26.6 °F 70% 29.23 in 10.0 mi North 26.5 mph 31.1 mph N/A   Overcast
12:36 AM 35.6 °F 24.0 °F 26.6 °F 70% 29.24 in 10.0 mi North 23.0 mph 29.9 mph N/A   Scattered Clouds
12:56 AM 35.6 °F 25.5 °F 26.6 °F 70% 29.25 in 10.0 mi NNW 17.3 mph - N/A   Clear
1:16 AM 35.6 °F 24.8 °F 26.6 °F 70% 29.26 in 10.0 mi North 19.6 mph 25.3 mph N/A   Scattered Clouds
1:36 AM 35.6 °F 24.0 °F 26.6 °F 70% 29.25 in 10.0 mi North 23.0 mph - N/A   Overcast
1:56 AM 35.6 °F 23.4 °F 26.6 °F 70% 29.25 in 10.0 mi NNW 25.3 mph 29.9 mph N/A   Mostly Cloudy
2:16 AM 35.6 °F 24.2 °F 24.8 °F 65% 29.25 in 10.0 mi North 21.9 mph 26.5 mph N/A   Partly Cloudy
2:36 AM 35.6 °F 24.8 °F 24.8 °F 65% 29.26 in 10.0 mi NNW 19.6 mph - N/A   Clear
2:56 AM 35.6 °F 24.5 °F 24.8 °F 65% 29.26 in 10.0 mi NNW 20.7 mph - N/A   Scattered Clouds
3:16 AM 35.6 °F 23.4 °F 24.8 °F 65% 29.26 in 10.0 mi NNW 25.3 mph 31.1 mph N/A   Mostly Cloudy
3:36 AM 35.6 °F 23.0 °F 26.6 °F 70% 29.26 in 10.0 mi North 27.6 mph 34.5 mph N/A   Scattered Clouds
3:56 AM 35.6 °F 23.0 °F 26.6 °F 70% 29.26 in 10.0 mi NNW 27.6 mph 31.1 mph N/A   Mostly Cloudy
4:16 AM 35.6 °F 23.4 °F 28.4 °F 75% 29.27 in 10.0 mi NNW 25.3 mph 31.1 mph N/A   Overcast
4:36 AM 35.6 °F 24.2 °F 28.4 °F 75% 29.27 in 10.0 mi NNW 21.9 mph 29.9 mph N/A   Overcast
4:56 AM 35.6 °F 23.4 °F 28.4 °F 75% 29.27 in 10.0 mi NNW 25.3 mph 28.8 mph N/A   Overcast
5:16 AM 35.6 °F 24.2 °F 28.4 °F 75% 29.27 in 10.0 mi North 21.9 mph 28.8 mph N/A   Mostly Cloudy
5:36 AM 35.6 °F 24.0 °F 28.4 °F 75% 29.27 in 10.0 mi NNW 23.0 mph - N/A   Partly Cloudy
5:56 AM 35.6 °F 23.7 °F 28.4 °F 75% 29.28 in 10.0 mi NNW 24.2 mph 27.6 mph N/A   Scattered Clouds
6:16 AM 35.6 °F 23.7 °F 28.4 °F 75% 29.28 in 10.0 mi NNW 24.2 mph 27.6 mph N/A   Mostly Cloudy
6:36 AM 35.6 °F 24.2 °F 30.2 °F 81% 29.28 in 10.0 mi NNW 21.9 mph 32.2 mph N/A   Overcast
6:56 AM 35.6 °F 24.0 °F 30.2 °F 81% 29.29 in 10.0 mi NNW 23.0 mph 31.1 mph N/A   Mostly Cloudy
7:16 AM 35.6 °F 24.8 °F 30.2 °F 81% 29.29 in 10.0 mi North 19.6 mph 24.2 mph N/A   Overcast
7:36 AM 35.6 °F 24.8 °F 28.4 °F 75% 29.30 in 10.0 mi North 19.6 mph 24.2 mph N/A   Overcast
7:56 AM 35.6 °F 24.8 °F 30.2 °F 81% 29.30 in 10.0 mi NNW 19.6 mph 25.3 mph N/A   Mostly Cloudy
8:16 AM 35.6 °F 26.2 °F 30.2 °F 81% 29.30 in 10.0 mi North 15.0 mph - N/A   Partly Cloudy
8:36 AM 35.6 °F 25.2 °F 30.2 °F 81% 29.31 in 10.0 mi NNW 18.4 mph 23.0 mph N/A   Partly Cloudy
8:56 AM 35.6 °F 24.5 °F 30.2 °F 81% 29.31 in 10.0 mi NNW 20.7 mph 24.2 mph N/A   Partly Cloudy
9:16 AM 35.6 °F 24.5 °F 30.2 °F 81% 29.31 in 10.0 mi North 20.7 mph 26.5 mph N/A   Scattered Clouds
9:36 AM 35.6 °F 24.2 °F 30.2 °F 81% 29.32 in 10.0 mi North 21.9 mph - N/A   Scattered Clouds
9:56 AM 35.6 °F 24.5 °F 30.2 °F 81% 29.32 in 10.0 mi North 20.7 mph 25.3 mph N/A   Scattered Clouds
10:16 AM 35.6 °F 25.2 °F 30.2 °F 81% 29.32 in 10.0 mi North 18.4 mph 25.3 mph N/A   Scattered Clouds
10:36 AM 35.6 °F 24.5 °F 30.2 °F 81% 29.32 in 10.0 mi North 20.7 mph 27.6 mph N/A   Scattered Clouds
10:56 AM 35.6 °F 24.2 °F 30.2 °F 81% 29.32 in 10.0 mi North 21.9 mph - N/A   Mostly Cloudy
11:16 AM 35.6 °F 24.2 °F 30.2 °F 81% 29.33 in 10.0 mi North 21.9 mph 29.9 mph N/A   Mostly Cloudy
11:36 AM 35.6 °F 24.8 °F 30.2 °F 81% 29.33 in 10.0 mi North 19.6 mph 26.5 mph N/A   Mostly Cloudy
11:56 AM 37.4 °F 27.2 °F 30.2 °F 75% 29.33 in 10.0 mi North 19.6 mph 27.6 mph N/A   Mostly Cloudy
12:16 PM 37.4 °F 26.9 °F 30.2 °F 75% 29.34 in 10.0 mi North 20.7 mph 26.5 mph N/A   Mostly Cloudy
12:36 PM 37.4 °F 26.4 °F 28.4 °F 70% 29.34 in 10.0 mi North 23.0 mph - N/A   Mostly Cloudy
12:56 PM 37.4 °F 27.8 °F 28.4 °F 70% 29.35 in 10.0 mi North 17.3 mph 23.0 mph N/A   Scattered Clouds
1:16 PM 37.4 °F 27.5 °F 28.4 °F 70% 29.35 in 10.0 mi North 18.4 mph 24.2 mph N/A   Scattered Clouds
1:36 PM 37.4 °F 27.8 °F 28.4 °F 70% 29.35 in 10.0 mi North 17.3 mph 25.3 mph N/A   Scattered Clouds
1:56 PM 37.4 °F 27.8 °F 28.4 °F 70% 29.35 in 10.0 mi North 17.3 mph 21.9 mph N/A   Scattered Clouds
2:16 PM 37.4 °F 27.8 °F 28.4 °F 70% 29.35 in 10.0 mi North 17.3 mph 24.2 mph N/A   Scattered Clouds
2:36 PM 37.4 °F 27.5 °F 28.4 °F 70% 29.35 in 10.0 mi NNW 18.4 mph - N/A   Scattered Clouds
2:56 PM 37.4 °F 27.8 °F 28.4 °F 70% 29.35 in 10.0 mi North 17.3 mph 23.0 mph N/A   Scattered Clouds
3:16 PM 37.4 °F 27.8 °F 28.4 °F 70% 29.35 in 10.0 mi North 17.3 mph - N/A   Scattered Clouds
3:36 PM 37.4 °F 28.2 °F 28.4 °F 70% 29.35 in 10.0 mi North 16.1 mph - N/A   Scattered Clouds
3:56 PM 37.4 °F 27.8 °F 28.4 °F 70% 29.35 in 10.0 mi North 17.3 mph - N/A   Mostly Cloudy
4:16 PM 37.4 °F 27.2 °F 28.4 °F 70% 29.35 in 10.0 mi NNW 19.6 mph 24.2 mph N/A   Mostly Cloudy
4:36 PM 37.4 °F 27.5 °F 28.4 °F 70% 29.35 in 10.0 mi North 18.4 mph 23.0 mph N/A   Mostly Cloudy
4:56 PM 37.4 °F 27.2 °F 30.2 °F 75% 29.35 in 10.0 mi North 19.6 mph - N/A   Mostly Cloudy
5:16 PM 35.6 °F 25.5 °F 28.4 °F 75% 29.35 in 10.0 mi North 17.3 mph 23.0 mph N/A   Mostly Cloudy
5:36 PM 35.6 °F 25.5 °F 28.4 °F 75% 29.35 in 10.0 mi North 17.3 mph - N/A   Mostly Cloudy
5:56 PM 35.6 °F 25.5 °F 28.4 °F 75% 29.35 in 10.0 mi NNW 17.3 mph - N/A   Mostly Cloudy
6:16 PM 35.6 °F 26.2 °F 30.2 °F 81% 29.35 in 10.0 mi North 15.0 mph - N/A   Mostly Cloudy
6:36 PM 35.6 °F 26.2 °F 30.2 °F 81% 29.36 in 10.0 mi NNW 15.0 mph 19.6 mph N/A   Mostly Cloudy
6:56 PM 35.6 °F 26.2 °F 30.2 °F 81% 29.36 in 10.0 mi NNW 15.0 mph - N/A   Mostly Cloudy
7:16 PM 35.6 °F 26.2 °F 28.4 °F 75% 29.36 in 10.0 mi North 15.0 mph - N/A   Mostly Cloudy
7:36 PM 35.6 °F 25.9 °F 30.2 °F 81% 29.36 in 10.0 mi North 16.1 mph - N/A   Mostly Cloudy
7:56 PM 35.6 °F 24.8 °F 30.2 °F 81% 29.37 in 10.0 mi North 19.6 mph 23.0 mph N/A   Mostly Cloudy
8:16 PM 35.6 °F 25.9 °F 30.2 °F 81% 29.37 in 10.0 mi North 16.1 mph - N/A   Overcast
8:36 PM 35.6 °F 25.9 °F 28.4 °F 75% 29.37 in 10.0 mi North 16.1 mph - N/A   Overcast
8:56 PM 35.6 °F 25.5 °F 30.2 °F 81% 29.38 in 10.0 mi North 17.3 mph 21.9 mph N/A   Overcast
9:16 PM 35.6 °F 25.9 °F 30.2 °F 81% 29.38 in 10.0 mi North 16.1 mph - N/A   Overcast
9:36 PM 35.6 °F 25.5 °F 30.2 °F 81% 29.39 in 10.0 mi North 17.3 mph 21.9 mph N/A   Overcast
9:56 PM 35.6 °F 25.2 °F 30.2 °F 81% 29.39 in 10.0 mi North 18.4 mph 23.0 mph N/A   Overcast
10:16 PM 35.6 °F 25.9 °F 30.2 °F 81% 29.39 in 10.0 mi North 16.1 mph - N/A   Overcast
10:36 PM 35.6 °F 25.2 °F 30.2 °F 81% 29.40 in 10.0 mi North 18.4 mph 24.2 mph N/A   Overcast
10:56 PM 35.6 °F 26.6 °F 30.2 °F 81% 29.40 in 10.0 mi North 13.8 mph 18.4 mph N/A   Overcast
11:16 PM 35.6 °F 25.9 °F 30.2 °F 81% 29.40 in 10.0 mi North 16.1 mph 24.2 mph N/A   Overcast
11:36 PM 35.6 °F 25.5 °F 30.2 °F 81% 29.40 in 10.0 mi NNW 17.3 mph - N/A   Overcast
11:56 PM 35.6 °F 24.8 °F 30.2 °F 81% 29.40 in 10.0 mi North 19.6 mph 25.3 mph N/A   Overcast